This is the latest recevied weather packets stored in our database for station/object K1BES. If no packets are shown the sender has not sent any weather packets the latest 10 day(s).
| Time | Temp. | Humidity | Pressure | Rain* | Wind** | Luminosity | Snow |
|---|---|---|---|---|---|---|---|
| 1788209809 | 31.67° C | 71% | 1017.4 hPa | 0 mm | - | 61 W/m² | - |
| 1788209505 | 31.67° C | 72% | 1017.3 hPa | 0 mm | - | 63 W/m² | - |
| 1788209205 | 31.67° C | 73% | 1017.5 hPa | 0 mm | - | 64 W/m² | - |
| 1788208904 | 31.67° C | 72% | 1017.6 hPa | 0 mm | - | 64 W/m² | - |
| 1788208598 | 31.67° C | 72% | 1017.6 hPa | 0 mm | - | 65 W/m² | - |
| 1788208298 | 31.67° C | 71% | 1017.6 hPa | 0 mm | - | 66 W/m² | - |
| 1788207996 | 31.67° C | 71% | 1017.4 hPa | 0 mm | - | 67 W/m² | - |
| 1788207692 | 32.22° C | 70% | 1017.4 hPa | 0 mm | - | 69 W/m² | - |
| 1788207391 | 32.22° C | 71% | 1017.5 hPa | 0 mm | - | 74 W/m² | - |
| 1788207086 | 32.22° C | 70% | 1017.7 hPa | 0 mm | - | 470 W/m² | - |
| 1788206782 | 32.22° C | 68% | 1017.5 hPa | 0 mm | - | 754 W/m² | - |
| 1788206482 | 32.22° C | 68% | 1017.5 hPa | 0 mm | - | 780 W/m² | - |
| 1788206178 | 31.67° C | 69% | 1017.6 hPa | 0 mm | - | 810 W/m² | - |
| 1788205872 | 32.22° C | 70% | 1017.6 hPa | 0 mm | - | 694 W/m² | - |
| 1788205567 | 31.67° C | 69% | 1017.7 hPa | 0 mm | - | 675 W/m² | - |
| 1788205262 | 32.22° C | 69% | 1017.5 hPa | 0 mm | - | 495 W/m² | - |
| 1788204957 | 32.22° C | 69% | 1017.5 hPa | 0 mm | - | 640 W/m² | - |
| 1788204657 | 33.33° C | 66% | 1017.5 hPa | 0 mm | - | 531 W/m² | - |
| 1788204352 | 33.33° C | 64% | 1017.7 hPa | 0 mm | - | 973 W/m² | - |
| 1788204048 | 33.33° C | 62% | 1017.9 hPa | 0 mm | - | 973 W/m² | - |
| 1788203743 | 33.33° C | 64% | 1017.6 hPa | 0 mm | - | 955 W/m² | - |
| 1788203439 | 32.78° C | 64% | 1017.7 hPa | 0 mm | - | 973 W/m² | - |
| 1788203135 | 32.78° C | 65% | 1017.9 hPa | 0 mm | - | 985 W/m² | - |
| 1788202833 | 32.78° C | 66% | 1018.1 hPa | 0 mm | - | 944 W/m² | - |
| 1788202530 | 33.33° C | 67% | 1018.1 hPa | 0 mm | - | 965 W/m² | - |
* Rain latest hour (hover to see other rain measurements)
** Current wind speed in m/s (hover to see current wind gust speed)